This is the latest recevied weather packets stored in our database for station/object N2QKV-13. If no packets are shown the sender has not sent any weather packets the latest 10 day(s).
| Time | Temp. | Humidity | Pressure | Rain* | Wind** | Luminosity | Snow |
|---|---|---|---|---|---|---|---|
| 1778184304 | 17.22° C | 43% | 1008 hPa | 0 mm | - | - | - |
| 1778184004 | 16.67° C | 43% | 1007.9 hPa | 0 mm | - | - | - |
| 1778183704 | 17.22° C | 44% | 1007.8 hPa | 0 mm | - | - | - |
| 1778183404 | 16.67° C | 44% | 1008 hPa | 0 mm | - | - | - |
| 1778183103 | 16.67° C | 43% | 1008.1 hPa | 0 mm | - | - | - |
| 1778182803 | 16.67° C | 46% | 1008.3 hPa | 0 mm | - | - | - |
| 1778182504 | 16.67° C | 44% | 1008.3 hPa | 0 mm | - | - | - |
| 1778182204 | 16.67° C | 47% | 1008.4 hPa | 0 mm | - | - | - |
| 1778181903 | 16.67° C | 46% | 1008.5 hPa | 0 mm | - | - | - |
| 1778181604 | 16.67° C | 46% | 1008.4 hPa | 0 mm | - | - | - |
| 1778181304 | 16.67° C | 49% | 1008.2 hPa | 0 mm | - | - | - |
| 1778181003 | 16.67° C | 45% | 1008.2 hPa | 0 mm | - | - | - |
| 1778180703 | 16.67° C | 48% | 1008.3 hPa | 0 mm | - | - | - |
| 1778180404 | 16.67° C | 45% | 1008.4 hPa | 0 mm | - | - | - |
| 1778180104 | 16.11° C | 49% | 1008.7 hPa | 0 mm | - | - | - |
| 1778179804 | 16.67° C | 47% | 1008.8 hPa | 0 mm | - | - | - |
| 1778179504 | 16.67° C | 48% | 1008.7 hPa | 0 mm | - | - | - |
| 1778179203 | 16.67° C | 50% | 1008.9 hPa | 0 mm | - | - | - |
| 1778178904 | 16.67° C | 49% | 1008.8 hPa | 0 mm | - | - | - |
| 1778178604 | 16.67° C | 51% | 1008.7 hPa | 0 mm | - | - | - |
| 1778178304 | 17.22° C | 49% | 1008.8 hPa | 0 mm | - | - | - |
| 1778178003 | 16.67° C | 51% | 1008.8 hPa | 0 mm | - | - | - |
| 1778177703 | 16.67° C | 52% | 1008.7 hPa | 0 mm | - | - | - |
| 1778177404 | 16.67° C | 52% | 1008.8 hPa | 0 mm | - | - | - |
| 1778177104 | 16.67° C | 50% | 1009 hPa | 0 mm | - | - | - |
* Rain latest hour (hover to see other rain measurements)
** Current wind speed in m/s (hover to see current wind gust speed)